Regional Weather Roundup
Issued by NWS

Home | Current Version | Previous Version | Text Only | Print | Product List | Glossary Off
Versions: 1 2 3 4 5 6 7 8 9 10 11 12 13 14 15 16 17 18 19 20 21 22 23 24 25 26 27 28 29 30 31 32 33 34 35 36 37 38 39 40 41 42 43 44 45 46 47 48 49 50

000
ASUS43 KDMX 221301
RWRIA

WEATHER ROUNDUP FOR IOWA
NATIONAL WEATHER SERVICE DES MOINES IA
800 AM CDT THU JUN 22 2017

NOTE: "FAIR" INDICATES FEW OR NO CLOUDS BELOW 12,000 FEET WITH NO
SIGNIFICANT WEATHER AND/OR OBSTRUCTIONS TO VISIBILITY.

* - THESE STATIONS ARE NOT NWS STATIONS...THUS NOT UNDER NWS
QUALITY CONTROL.  THEY ALSO DO NOT REPORT WEATHER SUCH
AS PRECIPITATION OR FOG.

IAZ001>003-012>014-020>022-031>034-043>046-221400-
   NORTHWEST IOWA

CITY           SKY/WX    TMP DP  RH WIND       PRES   REMARKS
CARROLL *      CLOUDY    77  61  57 SW20      29.66F
DENISON *      MOSUNNY   73  61  64 S6G14     29.70F
LE MARS *      SUNNY     77  63  61 CALM      29.66F
ORANGE CITY *  SUNNY     73  66  78 CALM      29.65F
SHELDON *      CLOUDY    72  68  88 E8        29.62F
SIOUX CITY     SUNNY     78  63  59 SW6       29.65R HX  80
SPENCER        CLOUDY    72  67  84 CALM      29.65F
STORM LAKE *   SUNNY     75  63  64 SW12G18   29.65F
$$

IAZ055>058-069>071-079>083-090>094-221400-
   SOUTHWEST IOWA

CITY           SKY/WX    TMP DP  RH WIND       PRES   REMARKS
ATLANTIC *     CLOUDY    75  63  64 S18G24    29.70F
AUDUBON *      PTSUNNY   75  63  64 S10G17    29.72F
CLARINDA *     CLOUDY    75  66  73 SW17      29.75S
COUNCIL BLFS * MOSUNNY   73  61  64 MISG      29.69S
CRESTON *      MOSUNNY   73  64  73 S14       29.76F
HARLAN  *      MOSUNNY   73  61  64 S9        29.74R
LAMONI         SUNNY     74  65  73 S16G23    29.74F
RED OAK *      MOSUNNY   75  64  69 S12       29.72F
SHENANDOAH *   PTSUNNY   75  64  69 S12G17    29.72F
$$

IAZ047>049-059>061-072>074-084-221400-
   CENTRAL IOWA

CITY           SKY/WX    TMP DP  RH WIND       PRES   REMARKS
AMES           CLOUDY    77  64  64 S16G25    29.68F
ANKENY *       MOSUNNY   77  63  61 SW14G21   29.71F
BOONE *        MOSUNNY   77  63  61 SW16G25   29.68F
CHARITON *     MOSUNNY   73  64  73 S15G23    29.74F
DES MOINES     PTSUNNY   76  62  62 S13       29.71F
GRINNELL*      CLOUDY    73  63  70 S12       29.75F
KNOXVILLE *    CLOUDY    75  63  64 S14G22    29.72S
MARSHALLTOWN   CLOUDY    74  63  68 SE10      29.70F
NEWTON *       MOSUNNY   73  63  68 S14       29.72F
PELLA *        PTSUNNY   75  63  66 S9G17     29.74F
PERRY *          N/A     76  61  59 S14G23    29.69F
$$

IAZ004>006-015-016-023>025-035-036-221400-
   NORTH CENTRAL IOWA

CITY           SKY/WX    TMP DP  RH WIND       PRES   REMARKS
ALGONA *       CLOUDY    72  66  83 SE7       29.70R
CLARION *        N/A     70  68  94 NE13      29.74R FOG
ESTHERVILLE    CLOUDY    70  67  90 CALM      29.66F
FORT DODGE *   CLOUDY    75  57  53 N9        29.72R
MASON CITY     CLOUDY    69  64  84 S14       29.73R THUNDER
FOREST CITY *  CLOUDY    70  59  68 S18G25    29.73R
WEBSTER CITY * CLOUDY    73  63  68 SW13      29.68R
IOWA FALLS *   PTSUNNY   73  65  78 S10       29.71R
$$

IAZ007>011-017>019-026>030-037>042-050>054-066-221400-
   NORTHEAST IOWA

CITY           SKY/WX    TMP DP  RH WIND       PRES   REMARKS
CEDAR RAPIDS   MOSUNNY   73  68  84 SE5       29.78R
CHARLES CITY * HVY RAIN  68  68 100 SW10G21   29.77R VSB 1/2
CLINTON *      CLOUDY    75  69  81 E6        29.83F
DECORAH *      CLOUDY    70  64  83 S14G22    29.73R
DUBUQUE        CLOUDY    72  64  76 SW8       29.82S
MONTICELLO *   CLOUDY    73  68  83 CALM      29.80R
OELWEIN *      CLOUDY    70  68  94 SE20G26   29.73F
WATERLOO       LGT RAIN  71  64  78 SE12      29.69F
$$

IAZ064-065-067-068-078-221400-
   EAST CENTRAL IOWA

CITY           SKY/WX    TMP DP  RH WIND       PRES   REMARKS
DAVENPORT      PTSUNNY   74  66  76 S6        29.81F
IOWA CITY      CLOUDY    77  67  71 S8        29.78F
MUSCATINE *    SUNNY     77  66  69 S13       29.78F
QUAD CITIES    MOSUNNY   76  66  71 E5        29.81F
$$

IAZ062-063-075>077-085>089-095>099-221400-
   SOUTHEAST IOWA

CITY           SKY/WX    TMP DP  RH WIND       PRES   REMARKS
BURLINGTON     CLOUDY    75  69  81 S16G22    29.81F
FAIRFIELD *    SUNNY     77  66  69 S13G20    29.76F
KEOKUK *       SUNNY     75  68  78 S12G17    29.82F
OTTUMWA        CLOUDY    74  66  76 S15G23    29.74F
WASHINGTON *   SUNNY     77  68  73 S14G21    29.78F
$$

ABBREVIATIONS USED IN REMARKS
   TC - TEMPERATURES IN CELSIUS
  WCI - WIND CHILL INDEX
   HX - HEAT INDEX
  VSB - VISIBILITY
$$





USA.gov is the U.S. government's official web portal to all federal, state and local government web resources and services.